ミュラー第4彗星

149P/Mueller 4 (2001)

English version
Home page
Updated on September 29, 2004

---------------------------------------------------------------------

・ プロフィール

符号 149P/2000 Y10
検出日 2000年12月22日
発見光度 20.5等
発見者 T. Oribe (Saji Observatory)

・ 軌道要素

   The following improved orbital elements by Kenji Muraoka, are 
  from 57 observations 1992 Apr. 9 to 2001 Mar. 25, perturbations  
  by 9 Plantes, Moon and 5 minor planets were taken into account. 
   The mean residual is +/- 0.78 arc seconds.

      Epoch  =  2001 Feb. 20.0  TT       JDT = 2451960.5
          T  =  2001 Feb.  7.82229       +/- 0.01064 (m.e.) TT
       Peri. =   43.59960                +/- 0.00297
       Node  =  145.36886                +/- 0.00027   (2000.0)
       Incl. =   29.74897                +/- 0.00012
          q  =    2.6466976              +/- 0.0000106 AU
          e  =    0.3885979              +/- 0.0000025
          a  =    4.3288983              +/- 0.0000057 AU
          n  =    0.10943040             +/- 0.00000022
          P  =    9.007                  +/- 0.0000177  years

・ 星図

・ 光度変化

        m1 = -2.3 + 5 logΔ + 44 log r(t - 150)

        ※ 灰色の曲線は、m1 = 14.0 + 5 logΔ + 10.0 log r の光度曲線です。

---------------------------------------------------------------------

軌道要素は村岡健治氏の計算によるものです。
星図は StellaNavigator Ver.2.0 for Windows (アストロアーツ 編著 / アスキー出版局刊) で作成したものです。
光度グラフはComet for Windowsで作成したものです。

---------------------------------------------------------------------

Copyright(C) Seiichi Yoshida (comet@aerith.net). All rights reserved.